Date String (YYYY-MM-DD hh:mm:ss) UTC,Instrument flags,Ambient pressure (hPa),Sample flow (lpm),Bypass flow (lpm),Sample temperature (°C),Ambient temperature (°C),ASC tube jacket temperature (°C),LED temperature (°C),Box temperature (°C),Sample RH (%),Span deviation,Mass concentration (μg/m³),Mass concentration (μg/m³),Mass concentration (μg/m³)
DateTimeUTC,F1_M11,P_M11,Q1_M11,Q2_M11,T1_M11,T2_M11,T3_M11,T4_M11,T5_M11,U1_M11,ZSPAN_M11,X0_M11,X2_M11,X1_M11
2022-11-21 13:00:00,,0829.5,5.01,0.00,22.2,21.1,00.0,31.1,24.1,07.3,0000.0,0004.71,0003.17,0002.98
2022-11-21 13:01:00,,0829.5,4.99,0.00,22.3,22.0,00.0,31.1,24.3,07.3,0000.0,0004.55,0003.05,0002.83
2022-11-21 13:02:00,,0829.6,5.00,0.00,22.4,22.2,00.0,31.1,24.4,07.2,0000.0,0004.28,0002.80,0002.59
2022-11-21 13:03:00,,0829.5,5.00,0.00,22.4,21.9,00.0,31.2,24.3,07.2,0000.0,0003.91,0002.55,0002.35
2022-11-21 13:04:00,,0829.6,5.00,0.00,22.4,21.7,00.0,31.2,24.3,07.2,0000.0,0003.75,0002.41,0002.23
2022-11-21 13:05:00,,0829.6,5.01,0.00,22.4,21.4,00.0,31.2,24.2,07.2,0000.0,0003.76,0002.36,0002.17
2022-11-21 13:06:00,,0829.6,4.99,0.00,22.4,21.2,00.0,31.2,24.2,07.2,0000.0,0003.80,0002.32,0002.10
2022-11-21 13:07:00,,0829.6,5.01,0.00,22.3,21.0,00.0,31.2,24.1,07.2,0000.0,0003.70,0002.23,0002.02
2022-11-21 13:08:00,,0829.6,5.01,0.00,22.3,20.9,00.0,31.2,24.1,07.2,0000.0,0003.43,0002.08,0001.90
2022-11-21 13:09:00,,0829.6,4.99,0.00,22.3,20.8,00.0,31.2,24.0,07.2,0000.0,0003.21,0001.98,0001.78
2022-11-21 13:10:00,,0829.5,5.00,0.00,22.2,20.7,00.0,31.2,24.0,07.2,0000.0,0002.53,0001.91,0001.70
2022-11-21 13:11:00,,0829.6,5.01,0.00,22.2,20.6,00.0,31.2,24.0,07.2,0000.0,0002.50,0001.86,0001.64
2022-11-21 13:12:00,,0829.6,4.99,0.00,22.2,20.6,00.0,31.2,24.0,07.2,0000.0,0002.49,0001.84,0001.62
2022-11-21 13:13:00,,0829.6,5.01,0.00,22.2,20.5,00.0,31.2,23.9,07.2,0000.0,0002.52,0001.80,0001.59
2022-11-21 13:14:00,,0829.6,5.00,0.00,22.1,20.5,00.0,31.2,23.9,07.2,0000.0,0002.51,0001.79,0001.58
2022-11-21 13:15:00,,0829.6,4.99,0.00,22.1,20.4,00.0,31.2,23.8,07.2,0000.0,0002.54,0001.80,0001.58
2022-11-21 13:16:00,,0829.9,5.02,0.00,22.1,20.5,00.0,31.1,23.8,07.3,0000.0,0002.53,0001.83,0001.60
2022-11-21 13:17:00,,0829.8,4.99,0.00,22.1,21.3,00.0,31.0,24.0,07.2,0000.0,0002.45,0001.83,0001.62
2022-11-21 13:18:00,,0829.9,5.00,0.00,22.2,22.0,00.0,31.0,24.2,07.3,0000.0,0002.45,0001.84,0001.64
2022-11-21 13:19:00,,0829.8,5.00,0.00,22.3,21.9,00.0,31.1,24.2,07.3,0000.0,0002.42,0001.84,0001.64
2022-11-21 13:20:00,,0829.7,5.00,0.00,22.3,21.6,00.0,31.1,24.2,07.2,0000.0,0002.38,0001.82,0001.65
2022-11-21 13:21:00,,0829.6,5.01,0.00,22.2,21.3,00.0,31.1,24.1,07.2,0000.0,0002.42,0001.84,0001.67
2022-11-21 13:22:00,,0829.8,4.99,0.00,22.2,21.1,00.0,31.1,24.0,07.1,0000.0,0002.46,0001.86,0001.69
2022-11-21 13:23:00,,0829.6,5.01,0.00,22.2,20.9,00.0,31.1,24.0,07.1,0000.0,0002.38,0001.82,0001.65
2022-11-21 13:24:00,,0829.7,4.99,0.00,22.2,20.8,00.0,31.1,23.9,07.0,0000.0,0002.24,0001.78,0001.62
2022-11-21 13:25:00,,0829.8,5.00,0.00,22.1,20.7,00.0,31.1,23.9,07.0,0000.0,0002.29,0001.75,0001.59
2022-11-21 13:26:00,,0829.6,5.02,0.00,22.1,20.6,00.0,31.1,23.9,07.0,0000.0,0002.27,0001.72,0001.55
2022-11-21 13:27:00,,0829.8,4.98,0.00,22.1,20.5,00.0,31.1,23.8,07.0,0000.0,0002.21,0001.68,0001.51
2022-11-21 13:28:00,,0829.8,5.01,0.00,22.0,20.5,00.0,31.1,23.8,07.0,0000.0,0002.18,0001.64,0001.48
2022-11-21 13:29:00,,0829.7,5.00,0.00,22.0,20.4,00.0,31.1,23.8,06.9,0000.0,0002.21,0001.64,0001.47
2022-11-21 13:30:00,,0829.7,5.00,0.00,22.0,20.4,00.0,31.1,23.8,06.9,0000.0,0002.23,0001.63,0001.46
2022-11-21 13:31:00,,0829.7,5.01,0.00,22.0,20.5,00.0,31.0,23.8,06.9,0000.0,0002.31,0001.65,0001.46
2022-11-21 13:32:00,,0829.7,4.99,0.00,22.1,21.3,00.0,31.0,23.9,07.0,0000.0,0002.30,0001.65,0001.47
2022-11-21 13:33:00,,0829.6,5.01,0.00,22.2,22.1,00.0,30.9,24.1,07.0,0000.0,0002.21,0001.61,0001.45
2022-11-21 13:34:00,,0829.6,4.99,0.00,22.2,21.9,00.0,31.0,24.2,06.8,0000.0,0002.25,0001.64,0001.47
2022-11-21 13:35:00,,0829.6,4.99,0.00,22.2,21.6,00.0,31.0,24.1,06.9,0000.0,0002.23,0001.65,0001.48
2022-11-21 13:36:00,,0829.7,5.01,0.00,22.2,21.3,00.0,31.1,24.0,06.8,0000.0,0002.14,0001.65,0001.49
2022-11-21 13:37:00,,0829.7,4.99,0.00,22.2,21.1,00.0,31.1,24.0,06.8,0000.0,0002.09,0001.65,0001.49
2022-11-21 13:38:00,,0829.7,5.02,0.00,22.1,20.9,00.0,31.1,23.9,06.9,0000.0,0002.02,0001.61,0001.48
2022-11-21 13:39:00,,0829.7,4.99,0.00,22.1,20.8,00.0,31.1,23.9,06.9,0000.0,0001.98,0001.57,0001.45
2022-11-21 13:40:00,,0829.7,5.02,0.00,22.1,20.7,00.0,31.1,23.9,06.9,0000.0,0002.19,0001.59,0001.43
2022-11-21 13:41:00,,0829.7,4.98,0.00,22.1,20.6,00.0,31.1,23.9,07.0,0000.0,0002.15,0001.57,0001.42
2022-11-21 13:42:00,,0829.7,5.02,0.00,22.0,20.4,00.0,31.1,23.8,07.2,0000.0,0002.08,0001.53,0001.39
2022-11-21 13:43:00,,0829.7,4.99,0.00,22.0,20.3,00.0,31.0,23.7,07.2,0000.0,0002.04,0001.50,0001.37
2022-11-21 13:44:00,,0829.7,5.00,0.00,22.0,20.2,00.0,31.0,23.7,07.2,0000.0,0002.09,0001.49,0001.35
2022-11-21 13:45:00,,0829.7,5.01,0.00,21.9,20.1,00.0,31.0,23.6,07.2,0000.0,0002.18,0001.50,0001.34
2022-11-21 13:46:00,,0829.7,5.00,0.00,21.9,20.3,00.0,31.0,23.6,07.1,0000.0,0002.25,0001.52,0001.34
2022-11-21 13:47:00,,0829.7,4.99,0.00,22.0,21.4,00.0,30.9,23.9,07.2,0000.0,0002.25,0001.53,0001.35
2022-11-21 13:48:00,,0829.7,5.00,0.00,22.1,22.1,00.0,30.9,24.1,07.1,0000.0,0002.28,0001.54,0001.36
2022-11-21 13:49:00,,0829.7,5.00,0.00,22.1,22.0,00.0,31.0,24.1,07.1,0000.0,0002.32,0001.57,0001.38
2022-11-21 13:50:00,,0829.7,4.99,0.00,22.2,21.7,00.0,31.0,24.1,07.2,0000.0,0002.45,0001.63,0001.42
2022-11-21 13:51:00,,0829.6,5.02,0.00,22.2,21.5,00.0,31.0,24.0,07.2,0000.0,0002.20,0001.61,0001.44
2022-11-21 13:52:00,,0829.8,4.99,0.00,22.1,21.2,00.0,31.0,24.0,07.3,0000.0,0002.26,0001.66,0001.47
2022-11-21 13:53:00,,0829.7,5.00,0.00,22.1,21.1,00.0,31.0,24.0,07.2,0000.0,0002.28,0001.68,0001.48
2022-11-21 13:54:00,,0829.8,5.01,0.00,22.1,20.9,00.0,31.0,23.9,07.1,0000.0,0002.43,0001.71,0001.50
2022-11-21 13:55:00,,0829.8,4.99,0.00,22.1,20.8,00.0,31.0,23.9,07.1,0000.0,0002.50,0001.74,0001.52
2022-11-21 13:56:00,,0829.8,5.01,0.00,22.1,20.7,00.0,31.0,23.9,07.1,0000.0,0002.44,0001.74,0001.53
2022-11-21 13:57:00,,0829.7,4.99,0.00,22.1,20.6,00.0,31.0,23.8,07.1,0000.0,0002.37,0001.71,0001.53
2022-11-21 13:58:00,,0829.8,5.00,0.00,22.0,20.5,00.0,31.0,23.8,07.1,0000.0,0002.45,0001.75,0001.53
2022-11-21 13:59:00,,0829.7,5.01,0.00,22.0,20.5,00.0,31.0,23.7,07.1,0000.0,0002.49,0001.78,0001.54
